Location: Limerick
(52.6800°N, 8.6400°W)
Time: 06:14:58
(UTC+00:00)

Amateur Radio Satellites - All Passes

Search period start: 21 December 2014 05:44
Search period end: 22 December 2014 05:44
Location: Limerick, 52.6800°N, 8.6400°W

Satellite Date Start Highest point End Downlink Frequencies (MHz)
Time Altitude Azimuth
JAS-2 21 Dec 05:54:04 05:59:59 73° 103° (ESE) 06:05:18 435.910
CUBESAT XI-V 21 Dec 06:10:31 06:15:11 77° 73° (ENE) 06:19:52 437.345
STRAND 1 21 Dec 06:26:34 06:31:42 86° 254° (WSW) 06:36:51 437.568
MOZHAYETS 4 21 Dec 06:29:14 06:29:42 10° 278° (W) 06:30:09
Cubesat XI-IV 21 Dec 06:29:31 06:34:28 38° 97° (E) 06:39:24 437.490
VERMONT LUNAR 21 Dec 06:47:45 06:48:26 10° 190° (S) 06:49:06 437.305
AO-7 21 Dec 06:49:13 06:56:58 44° 307° (NW) 07:04:42 29.400- 29.500
GONETS M04 21 Dec 07:00:48 07:09:36 67° 286° (WNW) 07:18:26
PHONESAT 2.4 21 Dec 07:02:31 07:03:45 11° 188° (S) 07:04:58 2401.200-2431.200
CUTE-I 21 Dec 07:02:34 07:07:53 66° 103° (ESE) 07:13:10 437.470
PRISM 21 Dec 07:03:58 07:06:53 18° 270° (W) 07:09:49 437.425
SO-50 21 Dec 07:10:22 07:13:38 18° 247° (WSW) 07:16:55 436.795
JAS-2 21 Dec 07:39:51 07:44:30 25° 307° (NW) 07:48:49 435.910
CUBESAT XI-V 21 Dec 07:50:13 07:53:12 17° 272° (W) 07:56:12 437.345
HO-68 21 Dec 08:05:48 08:10:31 18° 85° (E) 08:15:11 435.675
STRAND 1 21 Dec 08:08:46 08:11:41 15° 274° (W) 08:14:36 437.568
Cubesat XI-IV 21 Dec 08:09:39 08:14:38 42° 296° (WNW) 08:19:36 437.490
ANTELSAT 21 Dec 08:13:29 08:13:58 10° 48° (NE) 08:14:28 437.575/2403.000
SEEDS 21 Dec 08:22:37 08:24:22 12° 85° (E) 08:26:07 437.485
O/OREOS (USA 219) 21 Dec 08:23:10 08:25:50 15° 35° (NE) 08:28:30 437.305
CUTE 1.7 + AOD 2 21 Dec 08:25:55 08:28:27 15° 87° (E) 08:30:58 437.475
BRITE-PL 21 Dec 08:34:09 08:37:46 22° 92° (E) 08:41:34 437.365/2234.400
AO-7 21 Dec 08:42:45 08:47:45 18° 332° (NNW) 08:52:45 29.400- 29.500
CUTE-I 21 Dec 08:43:16 08:47:35 26° 303° (WNW) 08:51:53 437.470
POPSAT HIP 1 21 Dec 08:44:07 08:45:35 12° 52° (NE) 08:47:03 437.405
TIGRISAT 21 Dec 08:45:53 08:48:49 18° 56° (NE) 08:51:48 435.000
GOMX 1 21 Dec 08:58:39 09:02:38 27° 94° (E) 09:06:50 467.674
GONETS M04 21 Dec 09:02:05 09:08:27 21° 312° (NW) 09:14:50
Oscar 11 21 Dec 09:03:57 09:05:59 13° 86° (E) 09:08:01 145.826/435.025
BUGSAT 1 21 Dec 09:08:00 09:10:15 15° 56° (NE) 09:12:30 437.445
DUCHIFAT 1 21 Dec 09:10:10 09:13:05 19° 58° (ENE) 09:16:00 145.980
YUBILEINY 21 Dec 09:12:05 09:18:48 24° 51° (NE) 09:25:29 435.215
UKube-1 21 Dec 09:13:24 09:14:43 11° 86° (E) 09:16:03 .
UNISAT 6 21 Dec 09:14:07 09:17:56 29° 62° (ENE) 09:21:51 437.425
AAUSAT CUBESAT 2 21 Dec 09:15:04 09:18:45 28° 94° (E) 09:22:25 437.432
MaSat-1 21 Dec 09:21:08 09:23:10 29° 118° (ESE) 09:25:09 437.345
DOVE 4 21 Dec 09:22:04 09:26:19 33° 95° (E) 09:30:47 437.250
QB50P2 21 Dec 09:23:26 09:26:50 24° 61° (ENE) 09:30:14 145.880/145.840
CUBEBUG 2 21 Dec 09:25:55 09:28:44 16° 87° (E) 09:31:35 437.445
CUSAT 1 21 Dec 09:29:28 09:33:07 32° 87° (E) 09:37:52 437.405
CANX-2 21 Dec 09:29:48 09:34:06 60° 101° (E) 09:38:23 2200.000
POLYITAN 1 21 Dec 09:32:10 09:35:45 28° 63° (ENE) 09:39:23 437.675
NANOSAT C BR1 21 Dec 09:33:59 09:37:36 28° 63° (ENE) 09:41:14 145.865
ZACube-1 21 Dec 09:35:03 09:37:27 14° 86° (E) 09:39:51 437.345
CINEMA 3 21 Dec 09:44:26 09:48:41 33° 95° (E) 09:53:05 145.822/145.860
ANTELSAT 21 Dec 09:45:28 09:49:46 52° 69° (ENE) 09:54:12 437.575/2403.000
QB50P1 21 Dec 09:48:07 09:52:01 37° 66° (ENE) 09:55:56 145.935-145.965
COMPASS 1 21 Dec 09:50:24 09:54:41 66° 102° (ESE) 09:58:55 437.405
HO-68 21 Dec 09:52:15 09:59:28 76° 106° (ESE) 10:06:36 435.675
Cubesat XI-IV 21 Dec 09:52:55 09:53:27 10° 318° (NW) 09:53:58 437.490
SEEDS 21 Dec 09:56:33 10:00:53 87° 105° (ESE) 10:05:11 437.485
CUTE 1.7 + AOD 2 21 Dec 10:00:35 10:04:56 77° 286° (WNW) 10:09:15 437.475
FUNcube-1 21 Dec 10:00:48 10:04:24 23° 92° (E) 10:08:03 145.935
O/OREOS (USA 219) 21 Dec 10:01:42 10:06:11 62° 57° (ENE) 10:10:40 437.305
UWE-3 21 Dec 10:02:27 10:06:23 28° 93° (E) 10:10:22 435.000/436.395/437.385
DELFI C3 21 Dec 10:04:26 10:08:19 37° 97° (E) 10:12:09 145.870
50 SAT 21 Dec 10:07:04 10:08:56 13° 87° (E) 10:10:48 437.505
BRITE-PL 21 Dec 10:12:07 10:16:37 60° 289° (WNW) 10:21:28 437.365/2234.400
POPSAT HIP 1 21 Dec 10:16:32 10:20:43 68° 72° (ENE) 10:24:56 437.405
DX 1 21 Dec 10:16:46 10:20:56 43° 99° (E) 10:25:05 434.975-435.025
TIGRISAT 21 Dec 10:20:37 10:25:01 80° 256° (WSW) 10:29:34 435.000
AISAT 21 Dec 10:21:10 10:24:29 20° 91° (E) 10:27:47 437.250
DANDE 21 Dec 10:22:53 10:26:46 77° 100° (E) 10:32:07 436.750
HUMSAT D 21 Dec 10:31:25 10:35:06 27° 93° (E) 10:38:47 437.325/437.525
AO-7 21 Dec 10:35:05 10:37:16 11° 359° (N) 10:39:26 29.400- 29.500
GOMX 1 21 Dec 10:36:30 10:40:58 49° 291° (WNW) 10:45:45 467.674
Oscar 11 21 Dec 10:38:25 10:42:50 90° 105° (ESE) 10:47:12 145.826/435.025
BUGSAT 1 21 Dec 10:41:08 10:45:13 85° 254° (WSW) 10:49:18 437.445
DUCHIFAT 1 21 Dec 10:44:20 10:48:31 67° 257° (WSW) 10:52:44 145.980
UKube-1 21 Dec 10:47:16 10:51:38 80° 105° (ESE) 10:55:58 .
UNISAT 6 21 Dec 10:50:23 10:54:35 43° 262° (W) 10:58:56 437.425
AAUSAT CUBESAT 2 21 Dec 10:50:34 10:54:32 39° 293° (WNW) 10:58:29 437.432
MaSat-1 21 Dec 10:55:18 10:56:32 13° 317° (NW) 10:57:46 437.345
RS-15 21 Dec 10:56:14 11:04:22 25° 101° (ESE) 11:12:30 29.354- 29.394
QB50P2 21 Dec 10:58:25 11:02:31 49° 260° (W) 11:06:39 145.880/145.840
DOVE 4 21 Dec 10:59:48 11:04:10 41° 293° (WNW) 11:08:47 437.250
CUBEBUG 2 21 Dec 11:01:23 11:06:00 83° 286° (WNW) 11:10:44 437.445
CANX-2 21 Dec 11:06:27 11:09:41 21° 301° (WNW) 11:12:55 2200.000
POLYITAN 1 21 Dec 11:07:37 11:11:35 40° 262° (W) 11:15:36 437.675
YUBILEINY 21 Dec 11:08:33 11:17:18 77° 77° (ENE) 11:26:00 435.215
NANOSAT C BR1 21 Dec 11:09:26 11:13:22 39° 262° (W) 11:17:21 145.865
ZACube-1 21 Dec 11:09:55 11:14:27 89° 282° (WNW) 11:19:03 437.345
CUSAT 1 21 Dec 11:12:09 11:16:05 37° 297° (WNW) 11:21:19 437.405
VELOX 1 21 Dec 11:13:32 11:17:54 57° 101° (ESE) 11:22:16 145.980
ESTCUBE 1 21 Dec 11:18:01 11:22:00 30° 95° (E) 11:25:58 437.505/2401.250
CINEMA 3 21 Dec 11:21:37 11:25:58 40° 293° (WNW) 11:30:29 145.822/145.860
Oscar 19 21 Dec 11:23:11 11:26:40 19° 53° (NE) 11:30:10 437.125/150
ANTELSAT 21 Dec 11:23:21 11:26:53 23° 269° (W) 11:30:30 437.575/2403.000
QB50P1 21 Dec 11:24:19 11:28:00 29° 265° (W) 11:31:42 145.935-145.965
COMPASS 1 21 Dec 11:26:58 11:29:59 19° 301° (WNW) 11:33:00 437.405
TISAT 1 21 Dec 11:28:29 11:29:18 11° 85° (E) 11:30:08 437.305
SPROUT 21 Dec 11:32:52 11:34:20 12° 85° (E) 11:35:47 437.525
SEEDS 21 Dec 11:33:36 11:36:08 16° 304° (NW) 11:38:40 437.485
FUNcube-1 21 Dec 11:36:39 11:41:03 53° 290° (WNW) 11:45:30 145.935
CUTE 1.7 + AOD 2 21 Dec 11:38:06 11:40:10 13° 306° (NW) 11:42:13 437.475
UWE-3 21 Dec 11:38:45 11:43:06 45° 292° (WNW) 11:47:31 435.000/436.395/437.385
DELFI C3 21 Dec 11:39:55 11:43:30 29° 296° (WNW) 11:47:03 145.870
HO-68 21 Dec 11:40:31 11:46:40 32° 308° (NW) 11:52:46 435.675
50 SAT 21 Dec 11:40:35 11:44:46 86° 286° (WNW) 11:48:56 437.505
ITAMSAT 1 21 Dec 11:41:46 11:43:56 13° 47° (NE) 11:46:05 435.822/435.867
O/OREOS (USA 219) 21 Dec 11:41:49 11:45:12 21° 257° (WSW) 11:48:35 437.305
BRITE-PL 21 Dec 11:52:52 11:54:22 12° 308° (NW) 11:55:54 437.365/2234.400
DX 1 21 Dec 11:53:20 11:57:03 28° 298° (WNW) 12:00:44 434.975-435.025
POPSAT HIP 1 21 Dec 11:54:25 11:57:06 16° 271° (W) 11:59:47 437.405
AISAT 21 Dec 11:57:07 12:01:29 59° 290° (WNW) 12:05:51 437.250
TIGRISAT 21 Dec 12:01:02 12:02:36 12° 276° (W) 12:04:09 435.000
CUBEBUG 1 21 Dec 12:01:04 12:05:25 69° 103° (ESE) 12:09:44 437.445
HUMSAT D 21 Dec 12:06:58 12:11:04 43° 292° (WNW) 12:15:10 437.325/437.525
DANDE 21 Dec 12:08:17 12:11:20 18° 310° (NW) 12:15:00 436.750
Oscar 11 21 Dec 12:15:50 12:18:24 16° 305° (NW) 12:20:58 145.826/435.025
BUGSAT 1 21 Dec 12:20:17 12:21:23 11° 274° (W) 12:22:30 437.445
AO-7 21 Dec 12:21:55 12:26:44 17° 27° (NNE) 12:31:34 29.400- 29.500
UKube-1 21 Dec 12:24:28 12:27:17 17° 304° (NW) 12:30:05 .
CUBEBUG 2 21 Dec 12:39:25 12:42:04 15° 305° (NW) 12:44:46 437.445
ZACube-1 21 Dec 12:47:30 12:50:14 16° 304° (NW) 12:53:00 437.345
VELOX 1 21 Dec 12:50:44 12:54:11 23° 301° (WNW) 12:57:38 145.980
BEESAT 21 Dec 12:52:46 12:55:18 14° 86° (E) 12:57:49 436.000
ESTCUBE 1 21 Dec 12:54:46 12:59:00 40° 294° (WNW) 13:03:11 437.505/2401.250
Oscar 19 21 Dec 13:00:10 13:05:20 87° 73° (ENE) 13:10:33 437.125/150
TISAT 1 21 Dec 13:01:38 13:05:53 78° 104° (ESE) 13:10:07 437.305
PCSat 21 Dec 13:03:13 13:05:52 14° 104° (ESE) 13:08:33 145.827
RS-15 21 Dec 13:04:01 13:14:53 77° 127° (SE) 13:25:55 29.354- 29.394
YUBILEINY 21 Dec 13:06:07 13:13:20 31° 280° (W) 13:20:33 435.215
SPROUT 21 Dec 13:06:49 13:11:08 83° 104° (ESE) 13:15:27 437.525
FUNcube-1 21 Dec 13:15:45 13:16:29 10° 310° (NW) 13:17:13 145.935
Gurwin Techsat 1B 21 Dec 13:16:11 13:21:01 37° 62° (ENE) 13:25:52 435.225
50 SAT 21 Dec 13:17:14 13:19:23 14° 305° (NW) 13:21:31 437.505
ITAMSAT 1 21 Dec 13:17:21 13:22:23 55° 67° (ENE) 13:27:27 435.822/435.867
BEESAT 2 21 Dec 13:18:11 13:21:10 19° 115° (ESE) 13:24:10 435.950
HO-68 21 Dec 13:30:12 13:32:17 11° 332° (NNW) 13:34:21 435.675
AISAT 21 Dec 13:35:58 13:37:15 11° 310° (NW) 13:38:31 437.250
CUBEBUG 1 21 Dec 13:38:19 13:41:22 19° 302° (WNW) 13:44:24 437.445
KKS-1 21 Dec 13:48:22 13:48:57 10° 84° (E) 13:49:33 437.445
M-CUBED/EXP-1 PRIME 21 Dec 13:52:55 13:55:37 16° 92° (E) 13:58:11 437.505
SWISSCUBE 21 Dec 14:04:11 14:08:56 58° 102° (ESE) 14:13:37 437.505
ITUPSAT 1 21 Dec 14:04:55 14:09:38 54° 101° (E) 14:14:18 437.325
AO-7 21 Dec 14:09:50 14:17:26 42° 52° (NE) 14:25:06 29.400- 29.500
BEESAT 3 21 Dec 14:14:23 14:18:27 60° 128° (SE) 14:22:35 437.485
HORYU 2 21 Dec 14:20:51 14:25:10 50° 68° (ENE) 14:29:33 437.375
AIST 2 21 Dec 14:25:06 14:29:02 38° 122° (ESE) 14:33:03 435.215
JAS-2 21 Dec 14:28:47 14:33:36 20° 49° (NE) 14:38:05 435.910
BEESAT 21 Dec 14:29:04 14:33:53 87° 106° (ESE) 14:38:39 436.000
TISAT 1 21 Dec 14:38:32 14:41:13 17° 303° (WNW) 14:43:55 437.305
Oscar 19 21 Dec 14:42:05 14:45:23 17° 273° (W) 14:48:43 437.125/150
PCSat 21 Dec 14:42:57 14:48:20 69° 124° (SE) 14:53:45 145.827
SPROUT 21 Dec 14:44:02 14:46:42 16° 304° (NW) 14:49:21 437.525
BEESAT 2 21 Dec 14:54:49 14:58:58 74° 315° (NW) 15:03:12 435.950
Gurwin Techsat 1B 21 Dec 14:55:55 15:00:57 43° 262° (W) 15:06:01 435.225
ITAMSAT 1 21 Dec 14:57:49 15:02:12 27° 267° (W) 15:06:37 435.822/435.867
AUBIESAT-1 21 Dec 15:00:35 15:05:01 57° 107° (ESE) 15:09:03 437.475
ISS 21 Dec 15:02:29 15:05:29 33° 154° (SSE) 15:08:30 145.825
GONETS M04 21 Dec 15:07:02 15:14:16 27° 54° (NE) 15:21:24
STARS 21 Dec 15:16:52 15:21:09 45° 99° (E) 15:25:25 437.465
RS-15 21 Dec 15:17:26 15:28:04 54° 336° (NNW) 15:39:00 29.354- 29.394
KKS-1 21 Dec 15:21:58 15:26:27 71° 104° (ESE) 15:30:55 437.445
M-CUBED/EXP-1 PRIME 21 Dec 15:26:44 15:31:17 78° 293° (WNW) 15:35:26 437.505
SWISSCUBE 21 Dec 15:42:37 15:46:29 25° 301° (WNW) 15:50:19 437.505
ITUPSAT 1 21 Dec 15:43:19 15:47:16 26° 301° (WNW) 15:51:12 437.325
BEESAT 3 21 Dec 15:53:10 15:56:55 31° 329° (NNW) 16:00:41 437.485
HORYU 2 21 Dec 15:58:27 16:02:07 24° 267° (W) 16:05:49 437.375
AO-7 21 Dec 16:01:38 16:09:55 66° 254° (WSW) 16:18:17 29.400- 29.500
AIST 2 21 Dec 16:03:32 16:07:39 44° 323° (NW) 16:11:49 435.215
BEESAT 21 Dec 16:07:57 16:11:08 18° 306° (NW) 16:14:18 436.000
JAS-2 21 Dec 16:10:19 16:17:42 67° 69° (ENE) 16:24:20 435.910
Cubesat XI-IV 21 Dec 16:19:21 16:23:24 23° 55° (NE) 16:27:27 437.490
PCSat 21 Dec 16:27:14 16:32:11 34° 326° (NW) 16:37:09 145.827
BEESAT 2 21 Dec 16:34:32 16:37:53 23° 337° (NNW) 16:41:16 435.950
AUBIESAT-1 21 Dec 16:36:00 16:39:38 24° 308° (NW) 16:43:02 437.475
MOZHAYETS 4 21 Dec 16:36:53 16:40:22 21° 90° (E) 16:43:48
ISS 21 Dec 16:38:32 16:41:50 72° 174° (S) 16:45:07 145.825
CUTE-I 21 Dec 16:51:24 16:56:11 36° 61° (ENE) 17:00:59 437.470
STARS 21 Dec 16:53:42 16:57:28 27° 298° (WNW) 17:01:13 437.465
AIST 1 21 Dec 16:54:58 16:59:19 67° 97° (E) 17:03:39
KKS-1 21 Dec 16:59:27 17:02:39 20° 303° (WNW) 17:05:51 437.445
HO-68 21 Dec 16:59:42 17:01:13 11° 26° (NNE) 17:02:44 435.675
M-CUBED/EXP-1 PRIME 21 Dec 17:02:49 17:05:32 16° 315° (NW) 17:08:08 437.505
GONETS M04 21 Dec 17:03:39 17:12:31 87° 80° (E) 17:21:15
MaSat-1 21 Dec 17:12:49 17:14:51 26° 49° (NE) 17:16:57 437.345
RS-15 21 Dec 17:32:34 17:43:03 46° 9° (N) 17:53:54 29.354- 29.394
BEESAT 3 21 Dec 17:33:36 17:36:17 16° 352° (N) 17:38:58 437.485
AIST 2 21 Dec 17:44:11 17:47:17 19° 346° (NNW) 17:50:23 435.215
JAS-2 21 Dec 17:56:32 18:03:08 33° 267° (W) 18:09:12 435.910
Cubesat XI-IV 21 Dec 17:57:38 18:02:59 79° 255° (WSW) 18:08:20 437.490
AO-7 21 Dec 17:59:23 18:04:26 17° 277° (W) 18:09:31 29.400- 29.500
CUBESAT XI-V 21 Dec 18:03:03 18:05:14 13° 85° (E) 18:07:24 437.345
MOZHAYETS 4 21 Dec 18:13:25 18:18:01 62° 289° (WNW) 18:22:34
PCSat 21 Dec 18:13:25 18:17:11 19° 351° (N) 18:20:58 145.827
BEESAT 2 21 Dec 18:14:55 18:17:31 16° 1° (N) 18:20:08 435.950
ISS 21 Dec 18:15:04 18:18:20 59° 194° (SSW) 18:21:34 145.825
CUSAT 1 21 Dec 18:17:38 18:22:28 19° 50° (NE) 18:27:48 437.405
CUTE-I 21 Dec 18:31:06 18:36:11 45° 261° (W) 18:41:18 437.470
STRAND 1 21 Dec 18:31:47 18:35:36 21° 90° (E) 18:39:25 437.568
AIST 1 21 Dec 18:34:27 18:37:28 18° 298° (WNW) 18:40:29
PRISM 21 Dec 18:39:35 18:43:36 44° 99° (E) 18:47:34 437.425
HO-68 21 Dec 18:40:45 18:46:44 30° 50° (NE) 18:52:43 435.675
MaSat-1 21 Dec 18:46:28 18:47:57 15° 246° (WSW) 18:49:29 437.345
CANX-2 21 Dec 18:55:03 18:57:32 15° 55° (NE) 19:00:01 2200.000
DOVE 4 21 Dec 19:01:07 19:01:25 10° 50° (NE) 19:01:43 437.250
GONETS M04 21 Dec 19:01:26 19:08:17 27° 283° (WNW) 19:15:06
BEESAT 3 21 Dec 19:12:54 19:15:55 19° 16° (NNE) 19:18:56 437.485
DANDE 21 Dec 19:12:57 19:19:13 31° 60° (ENE) 19:26:27 436.750
COMPASS 1 21 Dec 19:14:13 19:16:47 16° 56° (NE) 19:19:21 437.405
SEEDS 21 Dec 19:20:20 19:23:26 20° 59° (ENE) 19:26:33 437.485
AIST 2 21 Dec 19:24:27 19:27:24 18° 10° (N) 19:30:21 435.215
CUTE 1.7 + AOD 2 21 Dec 19:24:33 19:27:59 24° 61° (ENE) 19:31:26 437.475
CUBESAT XI-V 21 Dec 19:38:46 19:43:25 86° 105° (ESE) 19:48:01 437.345
Cubesat XI-IV 21 Dec 19:41:10 19:43:58 14° 275° (W) 19:46:48 437.490
DX 1 21 Dec 19:44:36 19:46:52 14° 53° (NE) 19:49:08 434.975-435.025
RS-15 21 Dec 19:46:11 19:57:21 74° 40° (NE) 20:08:59 29.354- 29.394
BRITE-PL 21 Dec 19:51:29 19:55:22 41° 67° (ENE) 19:59:20 437.365/2234.400
ISS 21 Dec 19:51:56 19:54:30 21° 213° (SSW) 19:57:03 145.825
MOZHAYETS 4 21 Dec 19:52:34 19:54:21 12° 309° (NW) 19:56:09
BEESAT 2 21 Dec 19:53:38 19:57:07 24° 25° (NNE) 20:00:36 435.950
PCSat 21 Dec 19:58:27 20:02:34 21° 17° (NNE) 20:06:41 145.827
CUSAT 1 21 Dec 19:59:45 20:07:00 58° 71° (ENE) 20:15:20 437.405
Oscar 11 21 Dec 20:04:06 20:07:28 22° 60° (ENE) 20:10:52 145.826/435.025
STRAND 1 21 Dec 20:10:14 20:15:19 70° 290° (WNW) 20:20:23 437.568
AAUSAT CUBESAT 2 21 Dec 20:11:58 20:15:56 41° 67° (ENE) 20:19:57 437.432
UKube-1 21 Dec 20:13:16 20:16:39 23° 59° (ENE) 20:20:01 .
GOMX 1 21 Dec 20:13:17 20:17:16 49° 69° (ENE) 20:21:23 467.674
PRISM 21 Dec 20:15:31 20:18:57 25° 299° (WNW) 20:22:22 437.425
HO-68 21 Dec 20:26:37 20:33:49 83° 252° (WSW) 20:41:04 435.675
CANX-2 21 Dec 20:28:34 20:32:52 89° 255° (WSW) 20:37:13 2200.000
CUBEBUG 2 21 Dec 20:30:16 20:33:44 25° 61° (ENE) 20:37:18 437.445
DOVE 4 21 Dec 20:34:12 20:38:17 59° 71° (ENE) 20:42:31 437.250
ZACube-1 21 Dec 20:36:58 20:40:16 22° 60° (ENE) 20:43:38 437.345
VELOX 1 21 Dec 20:42:35 20:45:32 18° 56° (NE) 20:48:30 145.980
COMPASS 1 21 Dec 20:47:42 20:51:57 84° 256° (WSW) 20:56:15 437.405
ESTCUBE 1 21 Dec 20:50:35 20:51:51 11° 50° (NE) 20:53:06 437.505/2401.250
BEESAT 3 21 Dec 20:50:56 20:55:01 48° 39° (NE) 20:59:04 437.485
CINEMA 3 21 Dec 20:52:30 20:56:36 56° 70° (ENE) 21:00:53 145.822/145.860
SEEDS 21 Dec 20:54:39 20:58:52 63° 258° (WSW) 21:03:09 437.485
DANDE 21 Dec 20:56:02 21:03:23 84° 259° (W) 21:12:00 436.750
DELFI C3 21 Dec 20:58:35 21:02:36 53° 70° (ENE) 21:06:39 145.870
CUTE 1.7 + AOD 2 21 Dec 20:59:30 21:03:40 50° 261° (W) 21:07:53 437.475
50 SAT 21 Dec 21:00:55 21:03:48 19° 59° (ENE) 21:06:42 437.505
FUNcube-1 21 Dec 21:02:42 21:06:33 35° 65° (ENE) 21:10:30 145.935
AIST 2 21 Dec 21:03:08 21:07:10 36° 33° (NNE) 21:11:09 435.215
UWE-3 21 Dec 21:05:44 21:09:44 43° 68° (ENE) 21:13:52 435.000/436.395/437.385
CUBESAT XI-V 21 Dec 21:17:19 21:20:17 17° 305° (NW) 21:23:14 437.345
DX 1 21 Dec 21:18:06 21:22:27 81° 72° (ENE) 21:26:49 434.975-435.025
AISAT 21 Dec 21:24:54 21:28:59 38° 65° (ENE) 21:33:05 437.250
CUBEBUG 1 21 Dec 21:28:29 21:31:35 19° 58° (ENE) 21:34:40 437.445
SO-50 21 Dec 21:29:16 21:33:31 39° 122° (ESE) 21:37:55 436.795
HUMSAT D 21 Dec 21:29:26 21:33:19 39° 67° (ENE) 21:37:17 437.325/437.525
BRITE-PL 21 Dec 21:30:44 21:34:08 24° 267° (W) 21:37:35 437.365/2234.400
BEESAT 2 21 Dec 21:31:43 21:35:57 85° 47° (NE) 21:40:08 435.950
Oscar 11 21 Dec 21:39:04 21:43:20 56° 259° (W) 21:47:39 145.826/435.025
PCSat 21 Dec 21:41:57 21:47:15 50° 42° (NE) 21:52:31 145.827
CUSAT 1 21 Dec 21:43:05 21:50:03 44° 269° (W) 21:57:53 437.405
AAUSAT CUBESAT 2 21 Dec 21:48:11 21:51:46 26° 267° (W) 21:55:22 437.432
UKube-1 21 Dec 21:48:15 21:52:30 56° 258° (WSW) 21:56:48 .
STRAND 1 21 Dec 21:50:49 21:53:41 15° 310° (NW) 21:56:32 437.568
GOMX 1 21 Dec 21:52:35 21:55:45 21° 269° (W) 21:59:00 467.674
RS-15 21 Dec 21:58:53 22:09:17 47° 246° (WSW) 22:20:07 29.354- 29.394
CUBEBUG 2 21 Dec 22:06:10 22:10:14 46° 261° (W) 22:14:27 437.445
TIGRISAT 21 Dec 22:07:31 22:10:25 16° 87° (E) 22:13:20 435.000
CANX-2 21 Dec 22:07:37 22:09:29 13° 275° (W) 22:11:22 2200.000
ZACube-1 21 Dec 22:12:13 22:16:21 54° 260° (W) 22:20:36 437.345
DOVE 4 21 Dec 22:13:39 22:16:32 18° 271° (W) 22:19:29 437.250
VELOX 1 21 Dec 22:17:12 22:21:37 78° 256° (WSW) 22:26:04 145.980
HO-68 21 Dec 22:17:31 22:22:38 21° 273° (W) 22:27:46 435.675
ESTCUBE 1 21 Dec 22:23:22 22:27:49 57° 70° (ENE) 22:32:16 437.505/2401.250
YUBILEINY 21 Dec 22:24:21 22:29:49 19° 71° (ENE) 22:35:16 435.215
DUCHIFAT 1 21 Dec 22:25:02 22:27:14 14° 87° (E) 22:29:27 145.980
TISAT 1 21 Dec 22:25:48 22:28:46 19° 58° (ENE) 22:31:45 437.305
COMPASS 1 21 Dec 22:26:56 22:28:24 12° 275° (W) 22:29:51 437.405
BEESAT 3 21 Dec 22:29:21 22:33:06 32° 239° (WSW) 22:36:47 437.485
CINEMA 3 21 Dec 22:31:10 22:34:14 20° 270° (W) 22:37:24 145.822/145.860
SPROUT 21 Dec 22:32:16 22:35:26 20° 59° (ENE) 22:38:36 437.525
50 SAT 21 Dec 22:34:39 22:38:39 60° 259° (WSW) 22:42:42 437.505
DELFI C3 21 Dec 22:35:07 22:38:11 20° 269° (W) 22:41:16 145.870
UNISAT 6 21 Dec 22:36:28 22:40:32 28° 93° (E) 22:44:36 437.425
QB50P2 21 Dec 22:38:43 22:41:47 19° 90° (E) 22:44:51 145.880/145.840
FUNcube-1 21 Dec 22:39:12 22:42:58 31° 265° (W) 22:46:50 145.935
DANDE 21 Dec 22:40:30 22:46:11 24° 277° (W) 22:52:31 436.750
AIST 2 21 Dec 22:41:46 22:45:58 51° 234° (SW) 22:50:06 435.215
UWE-3 21 Dec 22:42:59 22:46:30 25° 268° (W) 22:50:07 435.000/436.395/437.385
POLYITAN 1 21 Dec 22:47:41 22:51:07 23° 92° (E) 22:54:32 437.675
NANOSAT C BR1 21 Dec 22:48:59 22:52:24 23° 92° (E) 22:55:48 145.865
DX 1 21 Dec 22:56:52 22:59:16 15° 272° (W) 23:01:42 434.975-435.025
AISAT 21 Dec 23:01:46 23:05:42 31° 265° (W) 23:09:39 437.250
CUBEBUG 1 21 Dec 23:03:11 23:07:32 68° 257° (WSW) 23:11:54 437.445
QB50P1 21 Dec 23:03:20 23:07:08 30° 95° (E) 23:10:56 145.935-145.965
HUMSAT D 21 Dec 23:05:43 23:09:16 27° 266° (W) 23:12:53 437.325/437.525
ANTELSAT 21 Dec 23:08:13 23:12:50 52° 100° (E) 23:17:27 437.575/2403.000
SO-50 21 Dec 23:09:33 23:14:03 48° 324° (NW) 23:18:41 436.795
BEESAT 2 21 Dec 23:10:58 23:13:40 17° 246° (WSW) 23:16:21 435.950
M-CUBED/EXP-1 PRIME 21 Dec 23:14:25 23:16:53 14° 43° (NE) 23:19:21 437.505
PCSat 21 Dec 23:25:34 23:30:38 41° 243° (WSW) 23:35:40 145.827
CUSAT 1 21 Dec 23:30:00 23:31:35 11° 288° (WNW) 23:33:12 437.405
POPSAT HIP 1 21 Dec 23:31:58 23:36:11 56° 101° (E) 23:40:23 437.405
SWISSCUBE 21 Dec 23:40:23 23:44:07 23° 58° (ENE) 23:47:51 437.505
ITUPSAT 1 21 Dec 23:41:25 23:45:04 22° 57° (ENE) 23:48:43 437.325
TIGRISAT 21 Dec 23:43:03 23:47:46 83° 286° (WNW) 23:52:30 435.000
BUGSAT 1 21 Dec 23:53:13 23:57:16 73° 104° (ESE) 00:01:20 437.445
VELOX 1 21 Dec 23:57:41 23:58:59 11° 275° (W) 00:00:19 145.980
DUCHIFAT 1 21 Dec 23:59:25 00:03:41 82° 286° (WNW) 00:07:57 145.980
TISAT 1 22 Dec 00:00:02 00:04:12 65° 258° (WSW) 00:08:25 437.305
ESTCUBE 1 22 Dec 00:01:32 00:05:03 22° 269° (W) 00:08:34 437.505/2401.250
BEESAT 22 Dec 00:04:29 00:08:44 32° 62° (ENE) 00:12:59 436.000
SPROUT 22 Dec 00:06:56 00:11:10 61° 258° (WSW) 00:15:25 437.525
UNISAT 6 22 Dec 00:13:00 00:17:31 47° 292° (WNW) 00:22:02 437.425
QB50P2 22 Dec 00:13:52 00:18:05 60° 289° (WNW) 00:22:18 145.880/145.840
RS-15 22 Dec 00:16:01 00:18:30 11° 271° (W) 00:21:00 29.354- 29.394
YUBILEINY 22 Dec 00:16:22 00:25:01 71° 95° (E) 00:33:41 435.215
AUBIESAT-1 22 Dec 00:20:15 00:24:38 34° 57° (ENE) 00:29:00 437.475
O/OREOS (USA 219) 22 Dec 00:20:59 00:24:20 21° 103° (ESE) 00:27:42 437.305
POLYITAN 1 22 Dec 00:23:10 00:27:19 49° 291° (WNW) 00:31:28 437.675
NANOSAT C BR1 22 Dec 00:24:25 00:28:31 48° 291° (WNW) 00:32:38 145.865
QB50P1 22 Dec 00:39:11 00:43:06 36° 294° (WNW) 00:47:00 145.935-145.965
ANTELSAT 22 Dec 00:45:28 00:49:24 27° 299° (WNW) 00:53:21 437.575/2403.000
STARS 22 Dec 00:45:54 00:48:19 15° 54° (NE) 00:50:44 437.465
M-CUBED/EXP-1 PRIME 22 Dec 00:46:12 00:51:00 56° 63° (ENE) 00:55:47 437.505
KKS-1 22 Dec 00:50:55 00:54:15 21° 58° (ENE) 00:57:36 437.445
SO-50 22 Dec 00:51:58 00:55:39 22° 347° (NNW) 00:59:25 436.795
Oscar 19 22 Dec 01:06:25 01:10:15 20° 89° (E) 01:14:04 437.125/150
POPSAT HIP 1 22 Dec 01:08:31 01:11:46 22° 300° (WNW) 01:15:02 437.405
SWISSCUBE 22 Dec 01:16:49 01:21:36 65° 257° (WSW) 01:26:23 437.505
ITUPSAT 1 22 Dec 01:17:44 01:22:32 69° 257° (WSW) 01:27:21 437.325
TIGRISAT 22 Dec 01:21:04 01:23:51 16° 306° (NW) 01:26:39 435.000
ITAMSAT 1 22 Dec 01:26:07 01:28:03 12° 84° (E) 01:29:59 435.822/435.867
BUGSAT 1 22 Dec 01:29:46 01:32:19 16° 303° (WNW) 01:34:53 437.445
DUCHIFAT 1 22 Dec 01:36:46 01:38:54 14° 306° (NW) 01:41:03 145.980
BEESAT 22 Dec 01:41:55 01:46:29 43° 262° (W) 01:51:04 436.000
QB50P2 22 Dec 01:52:14 01:53:10 11° 309° (NW) 01:54:06 145.880/145.840
AUBIESAT-1 22 Dec 01:54:45 01:59:27 47° 255° (WSW) 02:04:10 437.475
O/OREOS (USA 219) 22 Dec 01:58:56 02:03:21 60° 303° (WNW) 02:07:48 437.305
YUBILEINY 22 Dec 02:14:45 02:22:36 36° 299° (WNW) 02:30:29 435.215
STARS 22 Dec 02:19:45 02:24:08 83° 73° (ENE) 02:28:34 437.465
M-CUBED/EXP-1 PRIME 22 Dec 02:22:06 02:26:15 27° 261° (W) 02:30:25 437.505
KKS-1 22 Dec 02:26:08 02:30:32 63° 258° (WSW) 02:34:58 437.445
SO-50 22 Dec 02:34:00 02:37:44 22° 12° (NNE) 02:41:31 436.795
Oscar 19 22 Dec 02:44:57 02:50:10 74° 289° (WNW) 02:55:21 437.125/150
AIST 1 22 Dec 02:56:21 03:00:14 32° 69° (ENE) 03:04:04
SWISSCUBE 22 Dec 02:59:54 03:00:26 10° 277° (W) 03:00:57 437.505
ITUPSAT 1 22 Dec 03:00:02 03:01:21 11° 276° (W) 03:02:40 437.325
ITAMSAT 1 22 Dec 03:03:21 03:08:32 69° 104° (ESE) 03:13:42 435.822/435.867
Gurwin Techsat 1B 22 Dec 03:05:35 03:10:46 50° 99° (E) 03:15:54 435.225
O/OREOS (USA 219) 22 Dec 03:41:10 03:43:44 15° 326° (NW) 03:46:19 437.305
HORYU 2 22 Dec 03:42:58 03:47:20 44° 99° (E) 03:51:39 437.375
MOZHAYETS 4 22 Dec 03:44:24 03:48:42 38° 65° (ENE) 03:53:00
AO-7 22 Dec 03:56:34 04:03:52 32° 93° (E) 04:11:04 29.400- 29.500
STARS 22 Dec 03:58:52 04:01:14 14° 273° (W) 04:03:37 437.465
PRISM 22 Dec 04:03:18 04:05:12 13° 53° (NE) 04:07:07 437.425
SO-50 22 Dec 04:14:42 04:19:23 45° 35° (NE) 04:24:06 436.795
STRAND 1 22 Dec 04:18:00 04:20:00 12° 47° (NE) 04:22:00 437.568
GONETS M04 22 Dec 04:18:27 04:24:42 22° 74° (ENE) 04:30:56
YUBILEINY 22 Dec 04:20:05 04:22:55 12° 329° (NNW) 04:25:45 435.215
Oscar 19 22 Dec 04:25:34 04:28:42 16° 309° (NW) 04:31:51 437.125/150
VERMONT LUNAR 22 Dec 04:30:52 04:31:42 11° 171° (S) 04:32:32 437.305
AIST 1 22 Dec 04:34:04 04:37:53 32° 270° (W) 04:41:41
ITAMSAT 1 22 Dec 04:43:32 04:47:37 24° 304° (WNW) 04:51:42 435.822/435.867
Gurwin Techsat 1B 22 Dec 04:45:53 04:50:35 33° 299° (WNW) 04:55:15 435.225
PHONESAT 2.4 22 Dec 04:50:55 04:51:55 11° 170° (S) 04:52:54 2401.200-2431.200
JAS-2 22 Dec 04:59:28 05:04:29 30° 91° (E) 05:09:08 435.910
CUBESAT XI-V 22 Dec 05:11:43 05:15:35 26° 61° (ENE) 05:19:26 437.345
HORYU 2 22 Dec 05:19:57 05:23:51 29° 298° (WNW) 05:27:45 437.375
MOZHAYETS 4 22 Dec 05:21:44 05:25:58 34° 265° (W) 05:30:14
PRISM 22 Dec 05:35:49 05:40:03 75° 72° (ENE) 05:44:17 437.425
